STSAT-2C (39068 NORAD) Tracking and Keplerian Element Data

This shows tracking and keplerian element data for the satellite.

Feedback or suggestion? Click here.




ElementValue
Catalog39068
NameSTSAT-2C
Epoch Orbit29353
Epoch Day202.42358077
Epoch Year2018
RAAN304.0376
Inclination80.1896
Eccentricity0.02556
Argument of Perigee203.793
Mean Anonmoly155.133
Mean Motion15.42424819
Decay Rate0.00041004
L11 39068U 13003A 18202.42358077 .00041004 -13836-6 26975-3 0 9991
L22 39068 80.1896 304.0376 0255600 203.7930 155.1330 15.42424819293535

Live tracking and technical data element details for STSAT-2C (NORAD 39068). STSAT-2C can be tracked NOW for your location showing map with azimuth and elevation plus other details from your city location.

Track the satellite on the map from your city or location and see movement details for azimuth, elevation, latitude, longitude, range, height, and movement on the map or in text.







IsCatalogInMostPopularTable: catalog: 39068, numindb: 59
Update: records affected: 1



GetName: 39068 STSAT-2C

Hit Count: updated at: Mon, 23 Jul 2018 07:37:10 GMT